This is the latest recevied weather packets stored in our database for station/object KD0RIH. If no packets are shown the sender has not sent any weather packets the latest 10 day(s).
| Time | Temp. | Humidity | Pressure | Rain* | Wind** | Luminosity | Snow |
|---|---|---|---|---|---|---|---|
| 1777825082 | 20.56° C | 39% | 1012.2 hPa | 0 mm | - | 826 W/m² | - |
| 1777824777 | 20.56° C | 38% | 1012.3 hPa | 0 mm | - | 780 W/m² | - |
| 1777824475 | 20° C | 40% | 1012.2 hPa | 0 mm | - | 727 W/m² | - |
| 1777824171 | 20° C | 40% | 1012.4 hPa | 0 mm | - | 719 W/m² | - |
| 1777823867 | 18.89° C | 42% | 1012.3 hPa | 0 mm | - | 768 W/m² | - |
| 1777823565 | 18.89° C | 41% | 1012.5 hPa | 0 mm | - | 386 W/m² | - |
| 1777823261 | 18.33° C | 42% | 1012.5 hPa | 0 mm | - | 879 W/m² | - |
| 1777822959 | 17.78° C | 44% | 1012.4 hPa | 0 mm | - | 466 W/m² | - |
| 1777822657 | 17.78° C | 42% | 1012.4 hPa | 0 mm | - | 508 W/m² | - |
| 1777822355 | 17.78° C | 43% | 1012.5 hPa | 0 mm | - | 449 W/m² | - |
| 1777822052 | 17.22° C | 44% | 1012.7 hPa | 0 mm | - | 330 W/m² | - |
| 1777821750 | 17.22° C | 44% | 1012.7 hPa | 0 mm | - | 317 W/m² | - |
| 1777821447 | 17.22° C | 42% | 1012.8 hPa | 0 mm | - | 329 W/m² | - |
| 1777821144 | 17.22° C | 43% | 1012.7 hPa | 0 mm | - | 704 W/m² | - |
| 1777820841 | 17.22° C | 43% | 1012.8 hPa | 0 mm | - | 824 W/m² | - |
| 1777820537 | 16.67° C | 44% | 1012.8 hPa | 0 mm | - | 660 W/m² | - |
| 1777820234 | 16.11° C | 43% | 1012.9 hPa | 0 mm | - | 426 W/m² | - |
| 1777819931 | 16.11° C | 44% | 1012.7 hPa | 0 mm | - | 328 W/m² | - |
| 1777819628 | 16.11° C | 43% | 1013.1 hPa | 0 mm | - | 290 W/m² | - |
| 1777819326 | 16.11° C | 43% | 1013.1 hPa | 0 mm | - | 415 W/m² | - |
| 1777819022 | 15° C | 45% | 1013.1 hPa | 0 mm | - | 603 W/m² | - |
| 1777818720 | 15° C | 45% | 1013.1 hPa | 0 mm | - | 266 W/m² | - |
| 1777818416 | 15° C | 46% | 1013.2 hPa | 0 mm | - | 221 W/m² | - |
| 1777818113 | 15° C | 46% | 1013.3 hPa | 0 mm | - | 184 W/m² | - |
| 1777817810 | 14.44° C | 46% | 1013.6 hPa | 0 mm | - | 283 W/m² | - |
* Rain latest hour (hover to see other rain measurements)
** Current wind speed in m/s (hover to see current wind gust speed)